Weather History for PAPH - November, 2012

Change the Weather History Date:

Sunday, November 11, 2012

  Actual Average Record
Temperature  
Mean Temperature 36 °F -  
Max Temperature 39 °F 36 °F 53 °F (2011)
Min Temperature 33 °F 27 °F 14 °F (2005)
Degree Days  
Heating Degree Days 29    
Moisture  
Dew Point 34 °F    
Average Humidity 91    
Maximum Humidity 100    
Minimum Humidity 87    
Precipitation  
Precipitation 0.00 in - - ()
Sea Level Pressure  
Sea Level Pressure 29.81 in    
Wind  
Wind Speed 6 mph (West)    
Max Wind Speed 13 mph    
Max Gust Speed -    
Visibility 2 miles    
Events      
Averages and records for this station are not official NWS values.
T = Trace of Precipitation, MM = Missing Value Source: NWS Daily Summary

Daily Weather History Graph

Daily Weather History Graph

Search for Another Location

Airport or City:

Trip Planner

Search our weather history database for the weather conditions in past years. The results will help you decide how hot, cold, wet, or windy it might be!

Date:

Astronomy

Nov. 11, 2012 Rise Set
Actual Time 9:08 AM AKST 5:27 PM AKST
Civil Twilight 8:25 AM AKST 6:10 PM AKST
Nautical Twilight 7:39 AM AKST 6:57 PM AKST
Astronomical Twilight 6:54 AM AKST 7:42 PM AKST
Moon 6:13 AM AKST (11/11) 4:16 PM AKST (11/11)
Length of Visible Light 9h 45m
Length of Day
8h 19m
Waning Crescent, 6% of the Moon is Illuminated
Nov 11
Waning Crescent
Nov 13
New
Nov 20
First Quarter
Nov 28
Full
Dec 6
Last Quarter

Hourly Weather History & Observations

Time (AKST) Temp. Windchill Dew Point Humidity Pressure Visibility Wind Dir Wind Speed Gust Speed Precip Events Conditions
12:16 AM 35.6 °F 32.8 °F 33.8 °F 93% 29.65 in 10.0 mi West 3.5 mph - N/A   Overcast
12:36 AM 35.6 °F - 33.8 °F 93% 29.65 in 10.0 mi Calm Calm - N/A   Overcast
12:56 AM 35.6 °F - 33.8 °F 93% 29.66 in 10.0 mi Calm Calm - N/A   Overcast
1:16 AM 35.6 °F 32.8 °F 33.8 °F 93% 29.66 in 10.0 mi SW 3.5 mph - N/A   Overcast
1:36 AM 37.4 °F 34.9 °F 33.8 °F 87% 29.66 in 10.0 mi WSW 3.5 mph - N/A   Overcast
1:56 AM 37.4 °F 34.9 °F 33.8 °F 87% 29.66 in 10.0 mi WSW 3.5 mph - N/A   Overcast
2:36 AM 35.6 °F 32.8 °F 33.8 °F 93% 29.67 in 0.5 mi SW 3.5 mph - N/A   Overcast
2:56 AM 35.6 °F 31.7 °F 33.8 °F 93% 29.67 in 0.2 mi SW 4.6 mph - N/A   Overcast
3:16 AM 35.6 °F 31.7 °F 33.8 °F 93% 29.67 in 0.5 mi WSW 4.6 mph - N/A   Overcast
3:36 AM 35.6 °F 31.7 °F 35.6 °F 100% 29.67 in 0.8 mi WSW 4.6 mph - N/A   Overcast
3:56 AM 35.6 °F 30.7 °F 33.8 °F 93% 29.67 in 0.5 mi WSW 5.8 mph - N/A   Overcast
4:36 AM 35.6 °F 31.7 °F 33.8 °F 93% 29.69 in 0.5 mi SW 4.6 mph - N/A   Overcast
4:56 AM 35.6 °F 31.7 °F 33.8 °F 93% 29.69 in 0.5 mi SW 4.6 mph - N/A   Overcast
5:16 AM 37.4 °F 33.8 °F 35.6 °F 93% 29.69 in 0.5 mi SW 4.6 mph - N/A   Overcast
5:36 AM 37.4 °F 32.8 °F 35.6 °F 93% 29.69 in 0.5 mi SW 5.8 mph - N/A   Overcast
5:56 AM 37.4 °F 33.8 °F 35.6 °F 93% 29.70 in 0.2 mi WSW 4.6 mph - N/A   Overcast
6:16 AM 37.4 °F 32.8 °F 35.6 °F 93% 29.70 in 0.5 mi WSW 5.8 mph - N/A   Overcast
6:36 AM 37.4 °F 32.1 °F 35.6 °F 93% 29.70 in 0.8 mi West 6.9 mph - N/A   Overcast
6:56 AM 37.4 °F 32.8 °F 35.6 °F 93% 29.71 in 0.5 mi WSW 5.8 mph - N/A   Overcast
7:16 AM 37.4 °F 32.8 °F 35.6 °F 93% 29.71 in 0.5 mi WSW 5.8 mph - N/A   Overcast
7:36 AM 37.4 °F 33.8 °F 35.6 °F 93% 29.71 in 0.8 mi SW 4.6 mph - N/A   Overcast
7:56 AM 37.4 °F 33.8 °F 35.6 °F 93% 29.72 in 0.5 mi SW 4.6 mph - N/A   Overcast
8:16 AM 37.4 °F 32.8 °F 35.6 °F 93% 29.72 in 0.8 mi SW 5.8 mph - N/A   Overcast
8:36 AM 37.4 °F 32.8 °F 35.6 °F 93% 29.73 in 0.8 mi WSW 5.8 mph - N/A   Overcast
9:16 AM 37.4 °F 31.4 °F 35.6 °F 93% 29.74 in 0.5 mi West 8.1 mph - N/A   Overcast
9:36 AM 39.2 °F 33.6 °F 35.6 °F 87% 29.75 in 0.2 mi West 8.1 mph - N/A   Overcast
9:56 AM 37.4 °F 32.1 °F 35.6 °F 93% 29.75 in 0.2 mi West 6.9 mph - N/A   Overcast
10:16 AM 37.4 °F 32.1 °F 37.4 °F 100% 29.76 in 0.2 mi West 6.9 mph - N/A   Overcast
10:36 AM 39.2 °F 33.6 °F 35.6 °F 87% 29.77 in 0.2 mi West 8.1 mph - N/A   Overcast
10:56 AM 39.2 °F 34.2 °F 35.6 °F 87% 29.77 in 0.2 mi West 6.9 mph - N/A   Overcast
11:16 AM 39.2 °F 33.0 °F 35.6 °F 87% 29.78 in 0.8 mi West 9.2 mph - N/A   Overcast
11:36 AM 39.2 °F 34.2 °F 37.4 °F 93% 29.79 in 1.0 mi West 6.9 mph - N/A   Overcast
11:56 AM 39.2 °F 33.6 °F 37.4 °F 93% 29.79 in 0.5 mi West 8.1 mph - N/A   Overcast
12:16 PM 39.2 °F 32.5 °F 35.6 °F 87% 29.80 in 0.5 mi West 10.4 mph - N/A   Overcast
12:36 PM 39.2 °F 32.5 °F 35.6 °F 87% 29.81 in 0.2 mi West 10.4 mph - N/A   Overcast
12:56 PM 39.2 °F 33.0 °F 35.6 °F 87% 29.81 in 0.2 mi West 9.2 mph - N/A   Overcast
1:16 PM 39.2 °F 32.0 °F 35.6 °F 87% 29.82 in 0.5 mi West 11.5 mph - N/A   Overcast
1:36 PM 39.2 °F 32.5 °F 35.6 °F 87% 29.83 in 0.5 mi West 10.4 mph - N/A   Overcast
1:56 PM 37.4 °F 30.3 °F 35.6 °F 93% 29.83 in 0.8 mi West 10.4 mph - N/A   Overcast
2:16 PM 37.4 °F 29.3 °F 35.6 °F 93% 29.84 in 0.5 mi West 12.7 mph - N/A   Overcast
2:36 PM 37.4 °F 29.8 °F 35.6 °F 93% 29.85 in 0.5 mi West 11.5 mph - N/A   Overcast
2:56 PM 37.4 °F 30.3 °F 35.6 °F 93% 29.85 in 0.8 mi West 10.4 mph - N/A   Overcast
3:16 PM 37.4 °F 29.8 °F 35.6 °F 93% 29.86 in 0.8 mi West 11.5 mph - N/A   Overcast
3:36 PM 37.4 °F 29.8 °F 35.6 °F 93% 29.87 in 1.0 mi West 11.5 mph - N/A   Overcast
3:56 PM 37.4 °F 29.8 °F 35.6 °F 93% 29.87 in 1.2 mi West 11.5 mph - N/A   Overcast
4:16 PM 37.4 °F 29.3 °F 33.8 °F 87% 29.88 in 1.0 mi West 12.7 mph - N/A   Overcast
4:36 PM 37.4 °F 29.3 °F 33.8 °F 87% 29.89 in 0.8 mi West 12.7 mph - N/A   Overcast
4:56 PM 37.4 °F 29.8 °F 33.8 °F 87% 29.89 in 1.0 mi West 11.5 mph - N/A   Overcast
5:16 PM 35.6 °F 27.1 °F 33.8 °F 93% 29.90 in 1.5 mi West 12.7 mph - N/A   Overcast
5:36 PM 35.6 °F 27.5 °F 33.8 °F 93% 29.91 in 1.8 mi West 11.5 mph - N/A   Overcast
5:56 PM 35.6 °F 27.5 °F 33.8 °F 93% 29.92 in 3.0 mi West 11.5 mph - N/A   Overcast
6:16 PM 35.6 °F 28.6 °F 33.8 °F 93% 29.92 in 1.8 mi West 9.2 mph - N/A   Overcast
6:36 PM 35.6 °F 28.0 °F 33.8 °F 93% 29.94 in 3.0 mi West 10.4 mph - N/A   Overcast
6:56 PM 35.6 °F 27.5 °F 33.8 °F 93% 29.93 in 3.0 mi West 11.5 mph - N/A   Overcast
7:16 PM 35.6 °F 27.5 °F 32.0 °F 87% 29.94 in 2.5 mi West 11.5 mph - N/A   Overcast
7:36 PM 35.6 °F 27.5 °F 32.0 °F 87% 29.94 in 5.0 mi West 11.5 mph - N/A   Overcast
7:56 PM 35.6 °F 28.6 °F 32.0 °F 87% 29.95 in 3.0 mi West 9.2 mph - N/A   Overcast
8:16 PM 33.8 °F 25.8 °F 30.2 °F 87% 29.96 in 4.0 mi West 10.4 mph - N/A   Overcast
8:36 PM 33.8 °F 25.8 °F 30.2 °F 87% 29.97 in 8.0 mi West 10.4 mph - N/A   Overcast
8:56 PM 35.6 °F 28.0 °F 32.0 °F 87% 29.98 in 2.5 mi West 10.4 mph - N/A   Overcast
9:16 PM 33.8 °F 24.8 °F 30.2 °F 87% 29.98 in 7.0 mi West 12.7 mph - N/A   Overcast
9:56 PM 33.8 °F 26.4 °F 30.2 °F 87% 29.99 in 6.0 mi West 9.2 mph - N/A   Overcast
10:16 PM 33.8 °F 24.8 °F 30.2 °F 87% 30.00 in 3.0 mi West 12.7 mph - N/A   Overcast
10:36 PM 33.8 °F 25.3 °F 30.2 °F 87% 30.01 in 2.5 mi West 11.5 mph - N/A   Overcast
10:56 PM 33.8 °F 25.8 °F 30.2 °F 87% 30.02 in 6.0 mi West 10.4 mph - N/A   Overcast
11:16 PM 33.8 °F 25.8 °F 30.2 °F 87% 30.03 in 4.0 mi West 10.4 mph - N/A   Overcast
11:36 PM 33.8 °F 25.8 °F 30.2 °F 87% 30.03 in 3.0 mi West 10.4 mph - N/A   Overcast
11:56 PM 33.8 °F 27.0 °F 30.2 °F 87% 30.04 in 3.0 mi West 8.1 mph - N/A   Overcast